Powrót do katalogu

STARLINK-11328

AktywnyŁącznośćVLEO
NORAD 61880·PAYLOAD·🇺🇸 United States

Wystrzelony Nov 9, 2024 z Vandenberg Space Force Base

Loading…

Następne Przeloty (najbliższe 24 godziny)

TLE

ŚwieżeSource: CelesTrak SupGP

Epoka: Sep 14, 2026, 21:09 UTC

1 61880C 24204G   26257.88173611 -.00035014  00000+0 -28833-3 0  2570
2 61880  53.1565 143.6718 0001068  97.8088  81.7012 15.69734432    19

Śledź STARLINK-11328 w czasie rzeczywistym z AllMySat

Download on the App Store